"Time","Temp","Dewpoint","Humidity","Pressure","Direction","Speed","Gust","Precip","PrecipRate"
"00:04:56","56.8","52.3","85","29.96","200","0","0","0.00","0.00"
"00:09:57","56.7","52.2","85","29.96","200","0","0","0.00","0.00"
"00:14:59","56.6","52.1","85","29.96","200","0","0","0.00","0.00"
"00:19:59","56.5","52","85","29.96","200","0","0","0.00","0.00"
"00:24:56","56.4","52.1","85.5","29.96","200","0","0","0.00","0.00"
"00:29:57","56.4","52.2","85.8","29.96","200","0","0","0.00","0.00"
"00:34:58","56.3","52.3","86.5","29.96","200","0","0","0.00","0.00"
"00:39:59","56.1","52.3","87","29.96","200","0","0","0.00","0.00"
"00:44:56","56","52.2","87","29.96","200","0","0","0.00","0.00"
"00:49:57","55.9","52.1","87","29.96","200","0","0","0.00","0.00"
"00:54:57","55.9","51.9","86.4","29.96","200","0.8","2.4","0.00","0.00"
"00:59:57","56","51.9","86","29.96","200","1.1","2.4","0.00","0.00"
"01:04:59","56","51.9","86","29.96","200","0.1","1.2","0.00","0.00"
"01:09:59","56.1","51.7","85","29.96","200","0","0","0.00","0.00"
"01:14:57","56.1","51.7","85","29.97","200","0","0","0.00","0.00"
"01:19:57","56","51.6","85","29.97","200","0","0","0.00","0.00"
"01:24:58","55.9","51.5","85","29.97","200","0","0","0.00","0.00"
"01:29:59","55.8","51.4","85","29.97","200","0","0","0.00","0.00"
"01:34:59","55.8","51.4","85","29.97","200","0","0","0.00","0.00"
"01:39:57","55.8","51.7","85.9","29.97","200","0","1.2","0.00","0.00"
"01:44:58","55.7","51.4","85.1","29.97","200","0","0","0.00","0.00"
"01:49:58","55.7","51.5","85.8","29.97","200","0","0","0.00","0.00"
"01:54:59","55.7","51.6","86","29.97","200","0","0","0.00","0.00"
"01:59:56","55.6","51.5","86","29.97","200","0","0","0.00","0.00"
"02:04:57","55.5","51.4","86","29.96","200","0","0","0.00","0.00"
"02:09:56","55.5","51.4","86","29.96","200","0","0","0.00","0.00"
"02:14:58","55.4","51.3","85.9","29.96","200","0","0","0.00","0.00"
"02:19:58","55.4","51.3","86","29.94","200","0","0","0.00","0.00"
"02:24:58","55.3","51.3","86.5","29.94","200","0.2","1.2","0.00","0.00"
"02:29:59","55.3","51.5","87","29.94","200","0","1.2","0.00","0.00"
"02:34:56","55.3","51.5","87","29.94","200","0.1","1.2","0.00","0.00"
"02:39:58","55.3","51.5","87","29.94","200","0","0","0.00","0.00"
"02:44:58","55.2","51.4","87","29.94","200","0","0","0.00","0.00"
"02:49:59","55","51.3","87.4","29.94","200","0","0","0.00","0.00"
"02:54:56","54.9","51.4","88","29.94","200","0","0","0.00","0.00"
"02:59:56","54.8","51.3","88","29.94","200","0","0","0.00","0.00"
"03:04:59","54.8","51.3","88","29.93","200","0","0","0.00","0.00"
"03:09:58","54.8","51.3","88","29.93","200","0","0","0.00","0.00"
"03:14:56","54.7","51.2","88","29.94","200","0","0","0.00","0.00"
"03:19:56","54.7","51.3","88.4","29.94","200","0","0","0.00","0.00"
"03:24:57","54.6","51.4","89","29.94","200","0","0","0.00","0.00"
"03:29:58","54.6","51.4","89","29.94","200","0","0","0.00","0.00"
"03:34:57","54.5","51.3","89","29.93","200","0","0","0.00","0.00"
"03:39:59","54.4","51.2","89","29.93","200","0","0","0.00","0.00"
"03:44:59","54.4","51.5","89.9","29.93","200","0","0","0.00","0.00"
"03:49:56","54.4","51.5","90","29.93","200","0","0","0.00","0.00"
"03:54:58","54.4","51.5","90","29.93","200","0","0","0.00","0.00"
"03:59:59","54.3","51.4","90","29.93","200","0","0","0.00","0.00"
"04:04:57","54.3","51.4","90","29.92","200","0","0","0.00","0.00"
"04:09:57","54.3","51.4","90.2","29.92","200","0","0","0.00","0.00"
"04:14:57","54.3","51.4","90","29.92","200","0","0","0.00","0.00"
"04:19:57","54.3","51.4","90","29.92","200","0","0","0.00","0.00"
"04:24:58","54.3","51.5","90.5","29.92","200","0","1.2","0.00","0.00"
"04:29:59","54.4","51.8","91","29.92","200","0.1","1.2","0.00","0.00"
"04:34:56","54.4","51.5","90.2","29.92","200","0","0","0.00","0.00"
"04:39:57","54.4","51.5","90.2","29.92","200","0","0","0.00","0.00"
"04:44:57","54.4","51.5","90","29.92","200","0","0","0.00","0.00"
"04:49:58","54.3","51.4","90","29.92","200","0","0","0.00","0.00"
"04:54:58","54.2","51.3","90","29.92","200","0","0","0.00","0.00"
"04:59:58","54.2","51.3","90","29.92","200","0","0","0.00","0.00"
"05:04:56","54.2","51.5","90.7","29.92","200","0","0","0.00","0.00"
"05:09:56","54","51.4","91","29.92","200","0","0","0.00","0.00"
"05:14:57","53.9","51.3","91","29.92","200","0","0","0.00","0.00"
"05:19:57","53.9","51.3","91","29.92","200","0","0","0.00","0.00"
"05:24:57","53.9","51.5","91.8","29.92","200","0","0","0.00","0.00"
"05:26:56","53.9","51.6","92","29.92","200","0","0","0.00","0.00"
"05:34:58","53.9","51.6","92","29.93","200","0","0","0.00","0.00"
"05:39:58","53.9","51.5","91.7","29.93","200","0","0","0.00","0.00"
"05:44:57","54","51.4","91","29.93","200","0","0","0.00","0.00"
"05:49:56","54","51.4","91","29.93","200","0","0","0.00","0.00"
"05:54:56","54","51.5","91.2","29.93","200","0","0","0.00","0.00"
"05:59:59","54","51.4","91","29.93","200","0","0","0.00","0.00"
"06:04:59","54.1","51.5","91","29.93","200","0","0","0.00","0.00"
"06:09:56","54.1","51.5","91","29.93","200","0","0","0.00","0.00"
"06:14:56","54.1","51.5","91","29.93","200","0","0","0.00","0.00"
"06:19:59","54.2","51.6","91","29.93","200","0","0","0.00","0.00"
"06:24:58","54.2","51.6","91","29.93","200","0","0","0.00","0.00"
"06:29:57","54.4","51.8","91.2","29.93","200","0","0","0.00","0.00"
"06:34:56","54.5","51.9","91","29.93","200","0","0","0.00","0.00"
"06:39:56","54.6","52","91","29.93","200","0","0","0.00","0.00"
"06:44:59","54.7","52.1","91","29.93","200","0","0","0.00","0.00"
"06:49:58","54.8","51.9","90.2","29.93","200","0","0","0.00","0.00"
"06:54:57","55","52.3","90.8","29.93","200","0","0","0.00","0.00"
"06:59:57","55.2","52.4","90.4","29.93","200","0","0","0.00","0.00"
"07:04:58","55.4","52.5","90","29.93","200","0","0","0.00","0.00"
"07:09:57","55.6","52.7","90","29.93","200","0","0","0.00","0.00"
"07:14:58","55.8","52.8","89.8","29.93","200","0","0","0.00","0.00"
"07:19:58","56","52.8","89","29.93","200","0","0","0.00","0.00"
"07:24:58","56.2","52.9","88.7","29.93","200","0","0","0.00","0.00"
"07:29:57","56.5","53.1","88.3","29.93","200","0","0","0.00","0.00"
"07:34:56","56.8","53.4","88.2","29.93","200","0","0","0.00","0.00"
"07:39:59","57.2","53.6","87.6","29.93","200","0.1","1.2","0.00","0.00"
"07:44:58","57.6","53.8","87","29.94","200","0.2","1.2","0.00","0.00"
"07:49:56","58","53.9","86.3","29.94","200","0.3","2.4","0.00","0.00"
"07:54:59","58.3","53.8","85","29.94","204","0.8","3.6","0.00","0.00"
"07:59:57","58.5","53.8","84.3","29.94","248","1.6","3.6","0.00","0.00"
"08:04:57","58.7","53.9","84.2","29.94","310","1.3","3.6","0.00","0.00"
"08:09:56","58.6","53.6","83.2","29.94","289","1.1","4.8","0.00","0.00"
"08:14:59","58.6","53.5","82.9","29.94","357","1.7","6","0.00","0.00"
"08:19:57","58.6","53.5","83.2","29.94","360","1.9","4.8","0.00","0.00"
"08:24:56","58.6","53.7","83.5","29.94","360","1","3.5","0.00","0.00"
"08:29:57","58.7","53.7","83.5","29.94","359","1.7","3.6","0.00","0.00"
"08:34:56","58.9","53.8","83.1","29.93","309","1.6","4.8","0.00","0.00"
"08:39:59","59.2","54.1","83.2","29.93","225","1.9","3.6","0.00","0.00"
"08:44:58","59.4","53.5","80.9","29.95","225","1.2","3.6","0.00","0.00"
"08:49:56","59.6","53.5","80.3","29.95","283","1.9","6","0.00","0.00"
"08:54:58","59.8","53.7","80.3","29.95","349","2.3","4.8","0.00","0.00"
"08:59:56","59.9","53.7","80.2","29.95","345","1.7","3.6","0.00","0.00"
"09:04:56","59.9","53.8","80.3","29.94","345","0.5","2.4","0.00","0.00"
"09:09:59","59.9","54.2","81.3","29.94","345","0.5","2.4","0.00","0.00"
"09:14:59","60","54.4","81.7","29.95","345","0.5","2.4","0.00","0.00"
"09:19:58","60","55","83.5","29.95","345","0.1","1.2","0.00","0.00"
"09:24:56","59.8","55.3","85","29.95","345","1.1","3.6","0.02","0.02"
"09:29:59","59.5","55.4","86.6","29.95","345","0.3","2.4","0.03","0.03"
"09:34:57","59.2","55.3","87","29.95","345","0","1.2","0.04","0.04"
"09:39:59","58.9","55.2","87.3","29.95","345","0.7","3.6","0.05","0.05"
"09:44:56","58.8","55.6","89","29.95","345","1.3","3.6","0.06","0.06"
"09:49:56","58.6","55.5","89.5","29.93","345","0.4","2.4","0.06","0.06"
"09:54:57","58.4","55.6","90.1","29.93","345","0","1.2","0.06","0.06"
"09:59:56","58.4","55.7","90.8","29.93","48","0.2","1.2","0.06","0.06"
"10:04:57","58.4","55.7","90.5","29.93","54","0.4","2.4","0.07","0.06"
"10:09:57","58.4","55.5","90","29.93","53","0.2","1.2","0.07","0.07"
"10:14:58","58.4","55.7","90.7","29.93","53","0.4","2.4","0.10","0.10"
"10:19:58","58.4","55.8","91","29.93","53","0.2","1.2","0.11","0.11"
"10:24:59","58.4","55.8","91","29.93","53","0.3","2.4","0.11","0.11"
"10:29:58","58.4","55.8","91","29.94","53","0.1","2.3","0.12","0.09"
"10:34:59","58.4","55.8","91","29.94","53","0","0","0.12","0.09"
"10:39:57","58.5","56","91.5","29.94","53","0.9","3.6","0.12","0.08"
"10:44:58","58.5","56","91.5","29.94","53","1","2.4","0.12","0.07"
"10:49:58","58.6","56.3","91.8","29.94","53","0.1","1.2","0.12","0.06"
"10:54:58","58.9","56.6","92","29.94","53","0.1","1.2","0.12","0.06"
"10:59:58","59.2","56.8","91.7","29.94","53","0.2","2.4","0.12","0.06"
"11:04:59","59.4","56.9","91.2","29.93","53","0.2","2.4","0.12","0.06"
"11:09:59","59.7","56.8","90.2","29.93","53","0","0","0.12","0.05"
"11:14:56","60.1","57.3","90.5","29.93","53","0","0","0.12","0.05"
"11:19:56","60.4","57.1","89.2","29.93","53","0","0","0.12","0.02"
"11:24:57","60.8","57.9","90.4","29.93","53","0","0","0.12","0.01"
"11:29:57","61.4","58.4","90","29.93","21","0.7","3.6","0.12","0.01"
"11:34:59","61.9","58.9","89.8","29.93","21","0.4","2.4","0.12","0.00"
"11:39:58","62.2","58.7","88.5","29.93","21","0.5","2.4","0.12","0.00"
"11:44:57","62.3","58.6","87.9","29.93","21","0.1","1.2","0.12","0.00"
"11:49:58","62.4","58.9","88.3","29.93","21","0","0","0.12","0.00"
"11:54:58","62.5","59.2","89","29.93","21","0","0","0.12","0.00"
"11:59:58","62.9","59.6","89","29.93","21","0","1.2","0.12","0.00"
"12:04:59","63.1","59.1","87","29.93","21","0","0","0.12","0.00"
"12:09:59","63.1","59.1","86.7","29.93","21","0","0","0.12","0.00"
"12:14:56","63.2","59.2","86.8","29.93","21","0","0","0.12","0.00"
"12:19:56","63.2","59.5","87.6","29.92","19","0.2","2.4","0.12","0.00"
"12:24:57","63.5","59.3","86.4","29.92","18","0.9","3.6","0.12","0.00"
"12:29:57","63.6","59.5","86.5","29.92","18","0.8","3.6","0.12","0.00"
"12:34:57","64","59.9","86.4","29.92","30","0.4","2.4","0.12","0.00"
"12:39:58","65.3","60.9","85.9","29.92","31","0.7","3.6","0.12","0.00"
"12:44:58","65.9","60.7","83.5","29.92","31","0.7","2.4","0.12","0.00"
"12:49:57","66","61.3","84.8","29.92","33","0.4","2.4","0.12","0.00"
"12:54:58","66.2","61.4","84.7","29.92","34","0.8","2.4","0.12","0.00"
"12:59:57","66.5","61.7","84.6","29.92","118","1.9","4.8","0.12","0.00"
"13:04:58","66.6","61.6","84.2","29.92","135","1.7","4.8","0.12","0.00"
"13:09:57","66.8","61.7","83.5","29.92","135","0.2","1.2","0.12","0.00"
"13:14:59","67.3","62","83","29.92","135","0.9","3.6","0.12","0.00"
"13:19:59","67.4","62.2","83.4","29.92","136","1.2","3.6","0.12","0.00"
"13:24:59","67.6","62.5","83.5","29.92","136","0.7","3.6","0.12","0.00"
"13:29:59","68.1","62.8","83","29.92","136","1","3.6","0.12","0.00"
"13:34:56","69.4","64","83","29.91","136","1","4.8","0.12","0.00"
"13:39:57","70.5","63.6","78.8","29.91","145","1.9","4.8","0.12","0.00"
"13:44:58","70.5","63.8","79.4","29.91","147","1.4","8.4","0.12","0.00"
"13:49:58","70.7","63.6","78.3","29.90","182","2.3","8.4","0.12","0.00"
"13:54:59","70.4","63.5","78.7","29.90","190","3.6","7.2","0.12","0.00"
"13:59:59","70.3","63.5","79","29.90","168","2.8","6.9","0.12","0.00"
"14:04:56","70.2","63.4","79","29.90","208","3.7","8.4","0.12","0.00"
"14:09:59","70.2","63.5","79.2","29.90","180","3.2","7.2","0.12","0.00"
"14:14:56","70.3","63.5","79.1","29.90","162","2.8","6","0.12","0.00"
"14:19:56","70.5","63.8","79.4","29.89","212","3.3","6","0.12","0.00"
"14:24:57","70.7","63.8","78.8","29.89","185","2.1","4.8","0.12","0.00"
"14:29:58","70.7","63.7","78.4","29.89","175","2.6","7.2","0.12","0.00"
"14:34:59","70.5","63.4","78.4","29.88","199","3.7","7.2","0.12","0.00"
"14:39:58","70.3","63.6","79.2","29.88","194","2.7","6","0.12","0.00"
"14:44:59","70.4","63.7","79.7","29.88","228","1.8","4.6","0.12","0.00"
"14:49:59","70.4","63.7","79.3","29.88","181","2.3","4.8","0.12","0.00"
"14:54:59","70.4","63.5","78.8","29.88","201","4.3","7.2","0.12","0.00"
"14:59:56","70.3","63.4","78.8","29.88","187","3.2","7.2","0.12","0.00"
"15:04:57","70.3","63.5","79","29.88","178","2.9","8.4","0.12","0.00"
"15:09:56","70.4","63.6","79","29.88","193","3.4","8.4","0.12","0.00"
"15:14:57","70.3","63.6","79.4","29.88","190","3.3","7.2","0.12","0.00"
"15:19:57","70.3","63.7","79.5","29.88","199","2.8","7.2","0.12","0.00"
"15:24:58","70.4","64","80.4","29.88","191","3.1","8.4","0.12","0.00"
"15:29:57","70.2","63.5","79.4","29.88","194","8.3","17.3","0.12","0.00"
"15:34:58","69.8","63","79","29.88","184","6.5","18.4","0.12","0.00"
"15:39:58","69.7","62.7","78.6","29.88","180","5.4","15","0.12","0.00"
"15:44:58","69.6","62.9","79.1","29.88","177","3.6","12.7","0.12","0.00"
"15:49:57","69.7","62.8","78.6","29.87","184","4","8.4","0.12","0.00"
"15:54:58","69.8","62.5","77.7","29.87","194","4.9","15","0.12","0.00"
"15:59:58","69.8","62.5","77.6","29.88","201","3.3","13.2","0.12","0.00"
"16:04:58","69.8","62.5","77.4","29.88","192","5","13.2","0.12","0.00"
"16:09:58","69.9","62.2","76.4","29.88","191","4.9","17.3","0.12","0.00"
"16:14:56","70","61.2","73.8","29.88","192","5.6","12","0.12","0.00"
"16:19:59","70","60.5","71.9","29.87","189","5.9","13.2","0.12","0.00"
"16:24:56","69.9","60","70.7","29.87","202","7","14.4","0.12","0.00"
"16:29:59","69.8","59.9","70.8","29.87","200","7","15","0.12","0.00"
"16:34:56","69.7","60.3","72","29.87","200","3.5","8.4","0.12","0.00"
"16:39:57","69.5","60.3","72.5","29.87","191","4.8","12","0.12","0.00"
"16:44:58","69.4","60.5","73.2","29.87","194","3.9","9.6","0.12","0.00"
"16:49:58","69.4","60.8","73.9","29.87","187","3.4","10.8","0.12","0.00"
"16:54:59","69.4","61","74.7","29.87","197","4.6","10.8","0.12","0.00"
"16:59:59","69.4","61","74.7","29.87","194","5.7","13.2","0.12","0.00"
"17:04:59","69.4","60.8","74.2","29.87","187","7.6","17.3","0.12","0.00"
"17:09:58","69.3","59.6","71.4","29.87","170","6.1","12","0.12","0.00"
"17:14:56","69.1","58.6","69.4","29.87","186","6.9","16.1","0.12","0.00"
"17:19:56","68.9","58.9","70.6","29.87","180","4.7","11.5","0.12","0.00"
"17:24:57","68.4","59.7","73.9","29.87","186","7.1","15","0.12","0.00"
"17:29:56","67.7","59.7","75.4","29.88","183","6.9","15","0.12","0.00"
"17:34:56","67.2","59.7","76.9","29.88","181","3.5","7.2","0.13","0.00"
"17:39:57","66.7","59.9","78.7","29.88","178","4.4","13.2","0.13","0.01"
"17:44:57","66.4","59.9","79.8","29.88","211","3.5","8.4","0.13","0.01"
"17:49:57","66.2","60","80.4","29.88","193","3.8","8.4","0.13","0.01"
"17:54:57","66.2","59.9","80.2","29.88","205","4.2","8.4","0.13","0.01"
"17:59:57","66.2","59.8","80","29.88","194","3.9","13.2","0.13","0.01"
"18:04:58","66.3","59.9","80.2","29.88","193","4","12.7","0.13","0.01"
"18:09:56","66.3","59.9","80","29.88","191","4.4","8.4","0.13","0.01"
"18:14:57","66.2","59.8","80","29.88","193","5.4","15","0.13","0.01"
"18:19:56","66.2","60","80.5","29.88","180","3.8","12","0.13","0.01"
"18:24:59","66.1","60.1","80.9","29.88","186","4.7","12","0.13","0.01"
"18:29:58","66","60","81.1","29.88","162","3.4","8.1","0.13","0.01"
"18:34:58","65.8","59.8","81.1","29.87","188","3.2","7.2","0.13","0.01"
"18:39:58","65.7","59.6","80.8","29.87","181","4.4","13.2","0.13","0.00"
"18:44:58","65.5","59.5","80.8","29.87","177","3.1","12.7","0.13","0.00"
"18:49:57","65.3","59.5","81.5","29.87","184","3.7","7.2","0.13","0.00"
"18:54:57","65","59.7","83","29.87","188","4.1","8.4","0.13","0.00"
"18:59:57","64.7","59.7","83.8","29.87","176","3.8","10.8","0.13","0.00"
"19:04:58","64.5","59.9","84.9","29.87","185","2.9","9.6","0.13","0.00"
"19:09:56","64.3","59.8","85.5","29.87","176","2.2","4.8","0.13","0.00"
"19:14:57","64.1","59.8","86","29.88","210","3.9","8.4","0.14","0.01"
"19:19:57","63.9","60","87","29.88","212","2.6","8.1","0.14","0.01"
"19:24:58","63.7","60","87.6","29.88","183","1.7","4.6","0.14","0.01"
"19:29:58","63.6","60","88","29.88","182","1.4","3.6","0.15","0.01"
"19:34:59","63.5","59.9","88","29.87","182","1","3.6","0.15","0.02"
"19:39:56","63.4","60.1","88.9","29.87","182","1.2","3.6","0.15","0.02"
"19:44:57","63.3","60","89","29.87","181","1.2","3.6","0.16","0.03"
"19:49:58","63.2","60","89.2","29.87","181","0.3","3.6","0.16","0.03"
"19:54:58","63.1","60.1","90","29.87","182","1.2","3.6","0.16","0.03"
"19:59:58","63","60","90","29.88","182","0.9","3.6","0.16","0.03"
"20:04:58","62.9","59.9","90","29.88","182","1","3.6","0.16","0.03"
"20:09:57","62.9","60.1","90.7","29.88","182","0.2","2.4","0.16","0.03"
"20:14:58","62.9","60.2","91","29.88","178","1.7","3.6","0.16","0.03"
"20:19:58","62.9","60.2","91","29.87","143","1.4","4.8","0.16","0.02"
"20:24:59","62.9","60.2","91","29.87","168","1.5","7.2","0.16","0.02"
"20:29:59","62.9","60.2","91","29.88","170","1.4","3.6","0.16","0.02"
"20:34:56","62.9","60.2","91","29.88","171","0.5","2.4","0.16","0.01"
"20:39:57","62.8","60.1","91","29.88","171","0.6","3.6","0.16","0.01"
"20:44:58","62.8","60.1","91","29.88","171","0.2","2.3","0.16","0.01"
"20:49:58","62.8","60.1","91","29.87","174","1.1","6","0.16","0.00"
"20:54:59","62.7","60","91","29.87","176","0.8","3.6","0.16","0.00"
"20:59:59","62.6","59.8","90.7","29.87","186","1.6","4.8","0.16","0.00"
"21:04:59","62.6","59.7","90.2","29.87","186","0.2","4.8","0.16","0.00"
"21:09:58","62.6","59.6","90","29.87","186","2.2","4.8","0.16","0.00"
"21:14:59","62.6","59.6","90","29.87","190","2","4.8","0.16","0.00"
"21:19:59","62.6","59.6","90","29.87","196","2.1","6","0.16","0.00"
"21:24:56","62.6","59.6","90","29.87","198","1.4","5.8","0.16","0.00"
"21:29:56","62.6","59.6","90","29.87","200","0.9","2.4","0.16","0.00"
"21:34:57","62.6","59.6","90","29.87","200","0.2","1.2","0.16","0.00"
"21:39:59","62.6","59.6","90","29.87","200","0.7","2.4","0.16","0.00"
"21:44:56","62.6","59.5","89.9","29.87","200","0.7","2.4","0.16","0.00"
"21:49:56","62.5","59.5","89.9","29.87","200","0.1","1.2","0.16","0.00"
"21:54:57","62.5","59.5","90","29.87","200","0.1","1.2","0.16","0.00"
"21:59:57","62.5","59.5","90","29.87","200","0","1.2","0.16","0.00"
"22:04:58","62.5","59.3","89.5","29.87","200","0","1.2","0.16","0.00"
"22:09:56","62.4","59.1","89","29.87","200","0","0","0.16","0.00"
"22:14:58","62.4","59.1","89","29.87","200","0","0","0.16","0.00"
"22:19:58","62.4","59.1","89","29.87","200","0","0","0.16","0.00"
"22:24:58","62.3","59.1","89.3","29.87","200","0","0","0.16","0.00"
"22:29:58","62.3","59.4","90.6","29.87","200","0","0","0.16","0.00"
"22:34:59","62.2","59.5","91","29.87","200","0","0","0.16","0.00"
"22:39:56","62.1","59.4","91","29.87","200","0","0","0.16","0.00"
"22:44:57","62.1","59.4","91","29.87","200","0","0","0.16","0.00"
"22:49:57","62","59.4","91.4","29.87","200","0","0","0.16","0.00"
"22:54:58","61.9","59.5","91.8","29.87","200","0","0","0.16","0.00"
"22:59:58","61.8","59.5","92","29.87","200","0","0","0.16","0.00"
"23:04:58","61.8","59.6","92.6","29.87","200","0","0","0.16","0.00"
"23:09:57","61.8","59.8","93","29.87","200","0","0","0.16","0.00"
"23:14:58","61.8","59.8","93","29.87","200","0","0","0.16","0.00"
"23:19:58","61.8","59.8","93","29.87","200","0","0","0.16","0.00"
"23:24:59","61.8","59.8","93","29.87","200","0","0","0.16","0.00"
"23:29:59","61.8","59.8","93","29.87","200","0","0","0.16","0.00"
"23:34:59","61.8","59.8","93","29.87","200","0","0","0.16","0.00"
"23:39:59","61.8","59.8","93","29.87","200","0","0","0.16","0.00"
"23:44:59","61.8","60","93.7","29.87","200","0","0","0.16","0.00"
"23:49:55","61.8","60","93.6","29.87","200","0","0","0.16","0.00"
